Temp
26 26 26 26 27 27 27 27 27 27 27 27 27 27 27 27 26 26 26 26 25 25 25 24 25 25 25 25 25 25 25 26 26 26 26 26 27 27 28 28 28 28
26 26 26 26 26 26 27 27 27 27 27 27 27 27 27 26 26 26 26 26 26 26 25 25 25 25 25 25 25 25 25 25 26 26 26 26 26 27 28 28 28 28
26 26 26 27 26 26 27 27 27 27 27 27 27 27 27 27 26 26 26 26 26 26 25 25 25 25 25 25 25 26 26 25 26 26 26 26 26 27 27 28 28 28
26 27 27 27 27 26 27 27 27 27 27 27 27 27 27 27 27 26 26 26 26 26 26 25 25 25 25 25 25 26 26 25 26 26 26 26 26 26 27 28 28 28
26 27 27 27 27 27 27 28 27 27 28 28 27 27 27 27 27 27 27 26 26 26 26 26 26 25 25 25 25 26 26 26 26 26 26 26 26 26 27 27 27 27
27 27 26 27 27 27 28 28 28 28 28 28 28 28 27 27 27 27 27 27 26 26 27 26 26 26 26 26 25 26 26 26 26 26 26 26 26 27 27 27 27 27
27 27 27 27 27 27 28 28 28 28 28 28 28 28 28 27 27 27 27 27 27 27 27 27 26 26 26 26 26 26 26 26 26 26 26 26 26 26 27 27 27 27
27 27 27 27 27 27 27 28 28 28 28 28 28 28 28 28 27 27 27 27 27 27 27 27 26 26 26 26 26 26 26 26 26 26 26 26 26 26 26 27 27 26
27 27 27 27 28 28 28 28 28 28 28 28 28 28 28 28 27 28 27 27 27 27 27 27 26 26 26 26 26 26 26 27 27 27 26 26 26 26 26 27 27 27
27 27 27 28 28 28 28 28 29 29 28 28 28 28 28 28 28 28 27 26 27 27 26 26 26 26 26 27 26 26 26 26 27 27 27 27 27 27 27 27 27 27
27 27 27 27 27 28 28 29 29 29 29 28 28 29 29 29 28 27 27 26 26 27 26 26 26 26 26 27 27 27 27 27 27 27 27 27 27 27 27 27 27 27
27 27 27 27 27 27 27 28 29 30 29 29 29 29 29 29 28 28 27 26 26 26 27 26 26 26 26 26 27 27 27 27 27 27 27 27 27 27 27 27 27 27
27 27 27 27 27 26 26 27 28 29 29 29 29 29 29 29 29 28 27 27 26 26 27 26 26 26 26 26 26 27 27 27 27 27 27 27 27 28 28 28 28 28
26 27 27 26 26 26 26 26 27 28 29 29 29 29 29 29 29 29 28 27 27 27 27 27 26 26 26 26 26 27 27 27 27 27 27 28 28 28 28 28 28 28
25 26 25 25 25 25 25 25 25 26 27 28 28 28 28 29 29 29 29 28 28 27 27 27 27 27 27 27 27 27 27 27 27 27 27 28 28 28 28 28 28 29
24 24 24 24 24 24 24 24 24 24 25 26 26 27 27 28 28 28 29 29 28 28 28 28 28 28 28 27 27 27 26 27 27 27 27 27 27 27 27 28 28 29
23 23 23 23 23 23 23 23 23 23 23 24 25 25 26 26 27 27 28 28 29 28 28 28 28 28 28 27 27 27 26 26 27 27 27 27 27 27 27 28 28 28
22 22 22 22 22 22 23 22 22 22 23 23 23 24 24 25 26 26 27 28 28 28 28 28 27 27 27 27 27 26 26 26 26 27 27 27 27 27 27 28 28 28
22 22 22 22 22 22 22 22 22 22 22 22 23 23 23 24 25 26 26 27 27 28 27 26 25 25 26 26 26 26 26 26 26 26 27 28 28 28 28 28 28 28
21 21 21 21 22 22 21 22 22 22 22 22 22 22 23 23 24 24 25 26 26 26 25 24 24 25 25 25 25 25 25 25 25 25 26 27 28 28 28 28 28 27
20 20 20 21 21 21 21 21 22 22 22 22 22 22 22 23 22 22 23 24 24 23 22 22 23 23 23 24 24 24 24 24 24 25 25 26 27 27 27 27 27 27
19 19 19 20 20 20 20 21 21 21 21 21 21 21 22 22 21 22 23 22 21 21 22 21 22 22 23 23 23 24 24 24 24 24 24 24 24 25 25 25 25 25
18 18 18 18 18 19 19 19 19 19 20 21 21 21 21 21 21 21 22 20 20 22 22 20 20 21 22 22 22 23 23 23 23 23 22 22 22 23 23 23 23 24
18 18 18 18 18 18 18 18 18 18 19 19 19 20 20 20 20 20 21 20 20 21 21 20 20 21 21 21 22 22 22 22 22 22 21 21 22 21 21 22 22 23
18 19 19 18 19 18 18 18 18 18 19 19 19 19 19 20 20 20 20 20 20 20 19 19 20 20 20 21 21 21 21 22 22 22 21 21 21 21 21 22 21 21
18 18 18 19 19 19 18 18 18 19 19 19 19 19 19 19 20 20 20 20 19 19 19 19 19 19 20 20 20 20 21 21 21 21 21 21 21 21 21 21 21 20
Height
858 860 861 862 863 863 864 865 865 866 866 866 867 867 867 868 869 869 870 870 871 872 872 872 872 873 873 873 873 874 874 873 873 873 873 873 873 872 872 872 871 871
857 859 860 860 861 863 863 864 865 865 866 866 866 866 867 868 869 869 870 870 870 871 871 872 872 872 873 873 873 873 873 873 873 873 873 873 873 872 872 871 871 872
857 858 859 859 860 862 862 863 864 865 865 866 866 867 867 867 868 869 869 869 870 870 870 871 872 872 872 872 873 873 873 873 873 873 873 873 873 872 872 871 871 871
855 857 858 858 859 861 861 862 863 864 864 865 865 866 866 866 867 868 868 869 869 869 870 871 871 871 872 872 872 872 872 872 872 872 872 872 872 872 872 871 871 871
854 855 856 857 858 859 859 861 862 862 863 863 864 865 865 866 866 867 868 868 868 869 869 870 870 870 871 871 871 872 871 871 871 872 872 872 872 871 871 871 871 871
853 854 855 856 857 857 858 859 860 861 861 862 863 864 864 865 866 866 867 867 867 868 868 869 869 869 870 870 871 870 870 870 870 871 871 871 871 870 870 870 870 870
851 852 854 855 856 857 857 858 859 859 860 860 861 862 863 864 865 865 866 866 866 867 867 867 868 868 869 869 869 870 869 869 869 869 870 870 870 870 869 869 869 869
850 851 852 854 854 856 856 857 858 858 859 860 860 861 861 862 863 864 864 865 865 866 866 866 867 867 868 868 868 868 868 868 868 868 869 869 869 869 869 869 869 869
849 850 851 852 853 854 854 855 856 857 858 858 859 860 860 861 862 862 863 864 864 865 865 865 866 866 867 867 867 867 867 867 867 867 868 868 868 868 868 868 868 868
848 849 850 851 851 852 852 853 854 855 856 857 857 858 859 859 860 861 862 863 863 864 864 864 865 865 865 865 866 866 866 866 866 866 866 867 867 867 867 867 867 867
846 847 848 849 850 851 851 851 851 852 853 854 855 856 856 857 858 859 860 861 862 863 863 863 863 864 864 864 864 864 865 865 865 865 865 865 865 865 865 865 866 866
845 846 847 848 849 850 850 850 850 850 851 852 853 854 855 855 856 858 859 859 860 861 861 862 862 862 862 863 863 863 863 863 863 863 864 864 864 864 864 864 864 864
843 845 845 846 847 849 849 849 849 849 849 850 851 852 853 853 854 855 857 857 858 859 859 860 860 860 861 861 862 862 861 862 862 862 862 862 862 862 862 862 862 862
842 843 844 845 846 847 848 849 849 849 848 849 849 850 851 852 852 853 854 855 856 856 857 858 858 859 859 859 860 860 860 860 860 861 861 861 861 861 861 861 860 860
841 842 843 844 845 846 847 848 848 848 848 848 849 849 849 850 850 851 852 853 853 854 855 855 856 856 856 857 858 858 859 859 859 859 859 859 860 860 859 859 859 859
840 841 842 843 844 845 845 846 847 847 847 847 848 848 848 849 849 849 850 850 851 852 853 853 853 853 854 855 856 857 858 858 857 857 858 858 859 859 858 858 858 858
839 841 842 842 843 843 844 845 845 845 846 846 847 847 848 848 848 848 848 849 849 850 850 851 851 851 852 853 854 855 857 857 856 856 856 857 858 857 857 857 857 857
838 839 841 841 841 841 842 843 844 844 845 846 846 846 847 847 848 848 848 848 848 848 849 849 849 849 850 852 853 854 855 856 856 856 856 856 856 856 856 856 855 855
836 837 838 838 838 839 840 841 842 842 843 844 844 845 846 846 847 847 847 847 847 848 848 848 848 848 849 851 852 853 854 855 856 856 855 854 854 854 854 854 854 854
835 834 835 835 835 837 838 838 839 840 840 841 842 843 844 845 846 847 846 846 846 847 847 846 847 847 848 850 851 852 853 854 854 855 854 854 853 852 852 852 853 853
832 832 833 834 834 835 836 836 838 838 838 839 840 841 842 842 844 846 845 846 847 848 847 846 846 847 848 849 850 851 852 852 853 854 854 853 852 852 851 851 851 851
831 831 832 832 833 834 835 836 837 836 836 837 837 838 839 840 842 844 844 846 849 849 848 847 847 847 848 849 849 850 851 852 853 853 854 854 854 853 852 851 851 851
831 832 832 832 833 834 835 835 835 835 835 835 836 836 838 840 841 842 844 846 848 848 847 847 847 847 848 848 849 850 851 851 852 853 853 855 856 855 854 853 853 853
833 833 833 834 835 836 836 836 835 835 835 835 836 835 836 839 841 842 844 845 846 846 846 845 846 846 847 848 849 850 850 851 852 852 852 854 855 855 854 853 853 854
836 836 836 836 836 837 837 837 836 835 835 836 836 836 836 838 840 842 844 844 845 846 846 845 845 846 847 848 849 849 850 851 851 851 851 852 853 854 854 853 853 853
839 839 838 838 838 838 838 838 837 836 836 836 837 837 836 837 839 841 843 844 844 845 846 846 846 847 848 848 848 849 850 850 851 851 851 851 852 853 854 852 852 853
Wind_Speed
11 11 10 9 8 7 7 7 7 7 6 6 6 7 6 5 4 5 5 5 5 5 4 4 4 4 4 3 3 3 2 3 2 2 3 4 4 4 4 4 4 5
11 10 10 10 9 7 7 7 7 6 6 6 5 5 6 6 5 5 5 5 5 5 5 4 4 5 4 4 4 4 3 3 3 3 2 3 5 4 4 4 4 4
13 11 11 11 10 10 10 9 7 6 7 7 5 5 6 7 7 6 6 6 5 5 6 5 5 5 5 4 4 4 4 4 4 3 2 3 5 4 5 5 4 3
14 13 12 12 11 11 11 10 9 8 8 8 7 7 7 5 6 7 6 6 6 5 5 6 6 6 6 6 5 5 4 5 5 4 3 4 4 5 5 5 4 4
14 13 13 12 11 11 10 10 10 9 9 9 8 9 7 5 5 7 7 7 7 7 6 6 7 7 6 6 6 6 5 6 6 5 5 5 5 5 5 4 3 4
15 14 13 12 11 11 11 11 11 10 10 10 9 9 9 8 8 8 7 8 8 8 7 7 7 7 7 7 7 7 6 5 5 5 5 5 6 6 5 4 3 4
14 15 15 14 12 12 12 12 12 12 11 11 11 10 10 10 10 9 8 8 8 7 7 7 7 7 7 7 7 7 7 6 5 5 5 6 5 6 6 5 4 5
14 14 14 15 14 14 13 13 12 12 11 11 11 11 10 10 10 10 10 9 9 8 7 7 7 7 8 8 8 8 8 8 7 7 7 6 6 6 6 6 5 5
14 14 14 15 15 15 15 15 14 13 13 13 12 11 11 11 10 10 10 10 9 8 8 8 7 8 9 9 8 8 8 8 7 7 7 7 7 7 6 6 6 6
15 15 15 15 15 15 15 16 16 15 14 14 13 12 12 11 11 11 9 10 10 9 9 9 9 9 10 9 9 9 9 9 7 7 7 7 7 7 7 6 6 6
15 15 15 14 14 14 15 15 16 15 15 14 14 13 13 12 11 11 10 10 11 11 10 11 11 11 11 10 10 9 9 9 9 8 9 9 8 8 8 7 7 7
15 15 15 14 15 14 14 14 15 15 15 14 14 13 13 13 12 12 12 11 12 12 11 11 12 12 12 11 11 10 10 9 9 9 9 10 10 9 9 9 9 9
14 14 14 14 15 15 14 14 15 15 15 14 15 14 14 14 14 13 13 12 12 13 12 12 12 12 12 12 12 11 10 10 10 10 10 10 10 10 10 10 10 10
14 14 14 13 13 13 14 14 15 15 15 15 14 14 15 15 15 15 14 14 14 14 13 13 13 14 13 13 13 13 12 11 10 10 11 10 10 10 10 10 11 11
13 12 12 11 10 10 11 11 13 14 15 15 15 15 15 15 15 15 15 15 15 15 14 15 15 15 14 14 14 13 12 13 12 11 11 11 10 11 11 11 11 11
12 12 11 12 11 10 10 10 10 10 11 12 14 15 15 14 14 15 16 16 15 15 15 15 15 15 14 15 14 13 12 12 12 10 9 9 10 11 11 11 11 11
14 12 11 11 12 13 13 12 11 11 10 10 12 14 14 14 14 14 15 16 15 15 15 15 13 13 14 15 15 15 13 11 10 9 9 9 11 11 11 11 12 12
19 18 15 12 14 16 16 15 14 15 13 12 12 13 13 14 14 15 15 15 14 15 15 13 9 9 12 14 15 16 16 14 12 11 12 13 13 13 13 12 12 12
17 19 19 17 16 17 17 17 17 17 17 16 15 14 13 14 16 16 15 15 15 15 11 7 7 8 10 12 13 14 16 16 14 14 14 15 14 13 13 13 12 12
14 16 19 20 18 18 18 17 16 17 17 17 15 14 15 15 16 17 15 13 13 12 6 3 5 7 8 10 12 13 14 15 16 15 15 15 15 14 14 13 12 12
10 9 11 14 14 15 15 15 15 16 17 16 16 17 16 15 16 17 16 12 8 5 3 3 5 7 7 9 11 12 13 14 14 15 15 16 16 15 15 14 13 12
5 6 5 4 6 6 7 10 13 14 15 14 17 19 18 16 17 16 15 11 6 4 3 3 5 7 8 9 9 10 10 10 11 12 13 13 14 12 11 10 9 9
6 6 6 4 2 1 1 3 5 6 8 9 13 17 17 16 16 13 11 10 8 8 8 7 6 7 8 8 8 9 8 7 9 10 11 12 13 11 8 9 6 5
11 9 8 8 6 6 6 4 5 4 2 4 6 10 13 13 12 8 5 8 10 10 9 7 5 6 7 8 9 9 8 7 9 10 9 9 10 9 7 8 4 4
11 10 9 9 8 9 9 8 8 8 4 1 1 5 8 10 11 9 8 11 12 10 7 5 4 4 5 6 7 7 8 9 9 9 9 9 8 8 8 8 5 3
10 9 10 9 9 9 10 9 8 8 8 6 5 6 9 11 12 12 10 11 12 11 8 4 1 1 2 3 4 5 7 7 6 7 7 6 4 5 7 7 4 3
Wind_Direction
193 191 191 191 192 192 185 184 188 191 193 191 190 177 167 174 171 177 183 168 177 192 192 204 210 210 214 210 215 225 245 265 274 271 268 281 277 274 280 275 286 301
195 195 195 193 191 194 191 191 194 191 195 209 203 167 165 182 180 182 190 185 196 197 190 204 208 209 217 207 206 220 230 240 249 252 247 272 280 279 279 272 270 285
196 196 199 200 195 196 196 192 196 196 197 205 204 189 190 192 185 187 194 197 211 203 189 201 205 207 216 210 211 225 225 226 236 246 246 259 272 278 279 277 273 272
198 198 201 207 203 201 202 197 199 202 203 203 200 204 210 198 181 187 196 201 215 214 195 200 208 208 208 208 217 225 225 231 232 234 243 246 255 267 270 274 285 289
199 200 202 209 209 207 206 206 207 207 205 205 201 204 208 203 193 195 200 201 208 214 206 204 210 208 204 205 215 221 226 232 222 214 233 245 244 248 254 257 268 281
196 200 203 208 212 211 209 209 211 210 207 204 204 206 203 203 211 213 207 206 210 212 210 208 210 210 207 204 211 222 230 234 220 210 228 245 246 245 247 245 245 258
198 199 202 206 209 212 213 210 209 210 211 208 206 208 207 203 210 214 212 212 216 215 213 209 206 212 214 206 210 219 225 233 230 223 233 240 244 248 251 249 243 248
203 203 203 206 208 211 213 213 211 210 211 213 210 208 209 209 210 213 213 214 218 218 217 212 202 212 223 219 218 220 221 228 221 212 224 237 239 242 249 252 246 245
207 208 209 209 210 211 212 213 215 214 212 216 217 212 212 214 215 216 212 211 217 217 213 214 210 216 227 227 224 222 225 236 230 212 216 228 233 237 240 244 244 244
207 210 212 212 214 216 216 214 215 214 212 215 219 219 218 216 214 216 209 204 215 220 214 217 218 219 227 229 227 226 228 234 235 227 227 230 233 236 237 241 245 247
210 211 213 213 215 220 221 219 217 214 212 214 218 220 221 218 211 211 208 202 212 221 220 222 224 222 226 229 229 229 229 231 231 229 232 235 236 237 237 240 244 247
211 213 214 213 214 220 225 226 223 219 214 213 216 219 222 222 214 209 211 209 213 220 220 221 224 224 226 230 233 233 230 231 231 228 230 234 236 237 236 235 237 240
212 215 217 216 213 215 222 228 229 227 223 220 218 218 220 224 219 211 211 213 214 218 221 221 223 226 227 228 233 237 236 235 235 235 235 235 236 240 240 237 236 237
211 214 217 218 216 215 218 224 229 232 232 230 226 223 223 226 223 216 214 217 218 219 222 223 224 226 228 228 230 234 236 236 236 239 240 241 242 244 245 246 245 244
210 208 208 208 209 214 218 222 227 233 235 233 231 230 228 228 227 223 219 219 220 222 224 226 228 228 228 228 227 229 237 239 237 237 240 244 246 247 247 249 251 252
211 209 209 211 213 215 218 221 223 227 234 236 231 230 230 230 230 229 226 224 223 224 223 225 230 233 232 231 226 223 232 242 242 240 241 242 244 247 250 250 252 255
223 222 220 222 226 227 225 225 228 229 233 238 235 232 231 231 230 229 229 229 226 225 227 229 231 229 227 228 226 221 226 240 248 248 245 244 245 247 248 249 252 254
230 233 235 235 235 235 233 232 238 241 240 240 239 236 232 232 232 228 227 230 230 228 230 228 220 212 213 216 220 223 230 240 250 254 253 248 244 244 246 247 250 252
229 232 234 233 233 235 234 232 234 236 235 234 234 235 233 232 233 230 226 227 229 232 234 216 187 193 204 207 213 223 231 241 250 255 256 255 250 244 242 242 245 249
222 228 228 226 227 227 228 228 228 228 228 228 227 229 229 227 232 236 231 227 229 229 217 175 193 210 215 216 223 231 239 247 254 255 255 257 256 252 249 245 243 243
206 211 218 223 226 227 229 231 231 230 229 225 221 225 225 223 232 240 232 229 243 242 151 139 205 222 230 235 238 244 249 253 257 258 255 254 254 255 255 251 246 247
174 165 162 189 212 225 238 243 243 240 233 224 221 225 225 222 229 234 227 226 259 286 253 232 235 232 239 249 250 251 255 260 266 269 270 275 280 278 275 275 269 268
96 106 101 98 118 101 350 280 275 262 239 226 220 218 216 218 225 229 222 218 228 239 234 233 242 245 247 254 257 254 254 262 272 273 274 283 287 283 299 327 323 284
73 79 81 77 75 61 47 30 26 28 260 243 216 194 191 198 209 210 182 170 183 201 208 207 224 244 250 256 260 257 252 261 273 271 264 269 274 275 302 331 325 236
67 71 73 72 73 65 53 44 51 67 83 78 99 138 147 157 170 165 133 123 133 149 164 183 221 243 254 265 269 266 259 261 273 279 274 272 274 276 285 291 277 255
70 70 70 70 73 71 62 56 62 76 84 80 82 103 114 122 131 133 125 119 121 124 126 131 174 227 273 294 304 299 276 259 270 290 290 286 271 256 268 276 280 300